CZ-6A DEB, 54567

Orbit data source: Space-Track

CZ-6A DEB, 54567 is space debris in SSO originally from a launch on Fri, 11 Nov 2022 UTC launched from the Taiyaun Space Center, China (TSC). Debris objects in space refer to the collection of defunct objects orbiting the Earth. Examples of debris include non-operational satellites, rocket bodies, and fragments generated from explosions, collisions, or faulty payload assembly.

Loading next visibility...
Identifier
54567, 2022-151LT
Orbit
SSO
Country
Flag of CNCN / PRC
Related business
Manufacturer
SAST
Mission
Spacecraft
Bus & Motor
Unknown
Mass
Unknown
Launch date (UTC)
2022-11-11 (4 years ago)
Launch vehicle
Unknown
Launch site
Taiyaun Space Center, China (TSC)
Object type
Payload
Rocket body
Debris
Shape & HBR
Unknown shape, 0.3 m
Radar Cross Section
Medium (>0.1 m² and <1 m²)

Expand to show TLE details & history
Last TLE update: 2 days ago

TLE from 2 days ago
0 CZ-6A DEB
1 54567U 22151LT  26171.41334338  .00000222  00000-0  15319-3 0  9992
2 54567  98.8555 169.1113 0055062 354.0535   5.9974 14.08335487184970
Epoch: 2026-06-20T09:55Z
TLE epoch observation values (Epoch: 2026-06-20T09:55:12.868Z)
Latitude
-0.00006°
Longitude
111.67937°
Altitude
828.298 km
Speed
7.459 km/s
True Right ascension
11h 16m 26s
True Declination
0° 00' 00"
Sunlit
Object was in daylight at epoch
Visualization orbit readout
Latitude
Unknown
Longitude
Unknown
Altitude
Unknown
Speed
Unknown
Apparent Right ascension
Unknown
Apparent Declination
Unknown
Sunlit
N/A
Visualization observer readout
Local Sidereal Time
21:24:39
Azimuth
Unknown
Elevation
Unknown
Doppler factor
Unknown
Orbital elements
Apogee altitude
902.121 km
Perigee altitude
822.387 km
Semi-major axis
7,240.391 km
Eccentricity
0.00551
Inclination
98.8555°
RAAN
169.1113°
Arg. of periapsis
354.0535°
True anomaly
6.06378°
Mean anomaly
5.9974°
Eccentric anomaly
6.03054°
Mean motion
3.5229 °/min
Orbital period
102.19 mins
BSTAR
0.00015319
Loading maneuver chart data...
Computing Atmospheric mass density...
Loading historical data...
Loading historical data...
Loading historical data...
Loading historical data...
Loading historical data...
Loading historical data...
Loading historical data...

Documentation

Showing up to 5 results
|